| time (UTC) | temp F | wind direction | speed knots | gust knots | rain 1hr in | rain 24hr in | rain mn in | humidity % | barometer mb |
| 20260507114547 | 47 | 160 | 2.6 | 3.5 | 0.00 | 0.00 | 0.00 | 55 | 1003.0 |
| 20260507113548 | 46 | 257 | 0.0 | 0.9 | 0.00 | 0.00 | 0.00 | 55 | 1003.0 |
| 20260507112548 | 46 | 156 | 0.9 | 1.7 | 0.00 | 0.00 | 0.00 | 58 | 1002.9 |
| 20260507110547 | 45 | 252 | 3.5 | 5.2 | 0.00 | 0.00 | 0.00 | 60 | 1003.1 |
| 20260507105548 | 44 | 166 | 1.7 | 2.6 | 0.00 | 0.00 | 0.00 | 60 | 1003.1 |
| 20260507104548 | 44 | 159 | 0.0 | 0.0 | 0.00 | 0.00 | 0.00 | 62 | 1003.0 |
| 20260507103548 | 44 | 147 | 0.9 | 1.7 | 0.00 | 0.00 | 0.00 | 62 | 1003.3 |
| 20260507102547 | 44 | 167 | 0.0 | 0.0 | 0.00 | 0.00 | 0.00 | 60 | 1003.4 |
| 20260507101548 | 45 | 150 | 0.0 | 0.0 | 0.00 | 0.00 | 0.00 | 59 | 1003.5 |
| 20260507100547 | 45 | 172 | 1.7 | 2.6 | 0.00 | 0.00 | 0.00 | 56 | 1003.5 |
| 20260507094547 | 45 | 180 | 1.7 | 1.7 | 0.00 | 0.00 | 0.00 | 55 | 1003.7 |
| 20260507092548 | 46 | 209 | 1.7 | 2.6 | 0.00 | 0.00 | 0.00 | 51 | 1003.9 |
| 20260507091548 | 47 | 194 | 2.6 | 3.5 | 0.00 | 0.00 | 0.00 | 48 | 1004.2 |
| 20260507090548 | 48 | 155 | 3.5 | 3.5 | 0.00 | 0.00 | 0.00 | 47 | 1004.4 |
| 20260507085548 | 48 | 211 | 3.5 | 4.3 | 0.00 | 0.00 | 0.00 | 48 | 1004.8 |
| 20260507084548 | 48 | 220 | 2.6 | 3.5 | 0.00 | 0.00 | 0.00 | 48 | 1005.0 |
| 20260507083547 | 47 | 172 | 0.9 | 1.7 | 0.00 | 0.00 | 0.00 | 49 | 1005.1 |
| 20260507082548 | 47 | 167 | 3.5 | 3.5 | 0.00 | 0.00 | 0.00 | 50 | 1005.0 |
| 20260507081548 | 47 | 258 | 0.9 | 1.7 | 0.00 | 0.00 | 0.00 | 51 | 1004.9 |
| 20260507074548 | 45 | 185 | 1.7 | 1.7 | 0.00 | 0.00 | 0.00 | 54 | 1005.1 |
| 20260507073548 | 45 | 173 | 1.7 | 1.7 | 0.00 | 0.00 | 0.00 | 56 | 1005.2 |
| 20260507072547 | 44 | 196 | 1.7 | 2.6 | 0.00 | 0.00 | 0.00 | 60 | 1005.2 |
| 20260507071548 | 43 | 160 | 0.0 | 0.0 | 0.00 | 0.00 | 0.00 | 60 | 1005.2 |
| 20260507070547 | 42 | 208 | 1.7 | 1.7 | 0.00 | 0.00 | 0.00 | 61 | 1005.4 |
| 20260507065548 | 42 | 169 | 0.0 | 0.9 | 0.00 | 0.00 | 0.00 | 61 | 1005.5 |
| 20260507062549 | 40 | 173 | 0.9 | 1.7 | 0.00 | 0.00 | 0.00 | 65 | 1005.8 |
| 20260507061547 | 40 | 167 | 0.0 | 0.0 | 0.00 | 0.00 | 0.00 | 66 | 1005.6 |
| 20260507055548 | 39 | 157 | 0.0 | 0.0 | 0.00 | 0.00 | 0.00 | 69 | 1006.0 |
| 20260507054547 | 39 | 165 | 0.0 | 0.0 | 0.00 | 0.00 | 0.00 | 70 | 1005.8 |
| 20260507053547 | 39 | 156 | 0.0 | 0.0 | 0.00 | 0.00 | 0.00 | 70 | 1005.9 |
| 20260507052547 | 39 | 157 | 0.0 | 0.0 | 0.00 | 0.00 | 0.00 | 70 | 1006.0 |
| 20260507050548 | 40 | 154 | 0.0 | 0.0 | 0.00 | 0.00 | 0.00 | 70 | 1005.9 |
| 20260507044548 | 38 | 170 | 0.0 | 0.0 | 0.00 | 0.00 | 0.00 | 72 | 1006.2 |
| 20260507043548 | 38 | 179 | 0.0 | 0.0 | 0.00 | 0.00 | 0.00 | 71 | 1006.2 |
| 20260507041547 | 39 | 169 | 0.0 | 0.0 | 0.00 | 0.00 | 0.00 | 68 | 1006.4 |
| 20260507035548 | 39 | 141 | 0.0 | 0.0 | 0.00 | 0.00 | 0.00 | 68 | 1006.5 |
| 20260507032547 | 41 | 141 | 0.0 | 0.0 | 0.00 | 0.00 | 0.00 | 64 | 1006.6 |
| 20260507031548 | 42 | 157 | 0.0 | 0.0 | 0.00 | 0.00 | 0.00 | 63 | 1006.6 |
| 20260507030547 | 41 | 158 | 0.0 | 0.0 | 0.00 | 0.00 | 0.00 | 62 | 1006.8 |
| 20260507025548 | 41 | 158 | 0.0 | 0.0 | 0.00 | 0.00 | 0.00 | 61 | 1006.7 |
| 20260507024547 | 42 | 148 | 0.0 | 0.0 | 0.00 | 0.00 | 0.00 | 59 | 1006.7 |
| 20260507023548 | 44 | 148 | 0.0 | 0.0 | 0.00 | 0.00 | 0.00 | 57 | 1006.6 |
| 20260507022548 | 44 | 142 | 0.0 | 0.0 | 0.00 | 0.00 | 0.00 | 54 | 1006.7 |
| 20260507021548 | 45 | 145 | 0.0 | 0.0 | 0.00 | 0.00 | 0.00 | 53 | 1006.6 |
| 20260507020547 | 45 | 240 | 0.0 | 0.0 | 0.00 | 0.00 | 0.00 | 50 | 1006.6 |
| 20260507015547 | 46 | 240 | 0.0 | 0.0 | 0.00 | 0.00 | 0.00 | 47 | 1006.5 |
| 20260507013547 | 50 | 210 | 0.9 | 1.7 | 0.00 | 0.00 | 0.00 | 41 | 1006.5 |
| 20260507011548 | 52 | 266 | 0.0 | 0.0 | 0.00 | 0.00 | 0.00 | 37 | 1006.5 |
| 20260507010547 | 54 | 239 | 2.6 | 2.6 | 0.00 | 0.00 | 0.00 | 35 | 1006.5 |
| 20260507005547 | 55 | 258 | 1.7 | 1.7 | 0.00 | 0.00 | 0.00 | 33 | 1006.6 |
| 20260507004548 | 56 | 248 | 1.7 | 1.7 | 0.00 | 0.00 | 0.00 | 33 | 1006.6 |
| 20260507002548 | 56 | 257 | 4.3 | 5.2 | 0.00 | 0.00 | 0.00 | 32 | 1006.8 |
| 20260507001548 | 56 | 258 | 7.0 | 7.8 | 0.00 | 0.00 | 0.00 | 31 | 1006.8 |
| 20260507000547 | 56 | 254 | 4.3 | 6.1 | 0.00 | 0.00 | 0.00 | 31 | 1006.8 |
| 20260506235547 | 57 | 258 | 5.2 | 7.0 | 0.00 | 0.00 | 0.00 | 31 | 1006.8 |
| 20260506234548 | 59 | 307 | 3.5 | 4.3 | 0.00 | 0.00 | 0.00 | 30 | 1006.8 |
| 20260506233548 | 57 | 268 | 4.3 | 6.1 | 0.00 | 0.00 | 0.00 | 31 | 1006.9 |
| 20260506232549 | 56 | 254 | 5.2 | 6.1 | 0.00 | 0.00 | 0.00 | 31 | 1007.0 |
| 20260506231548 | 56 | 243 | 7.0 | 8.7 | 0.00 | 0.00 | 0.00 | 31 | 1007.1 |
| 20260506230547 | 58 | 256 | 2.6 | 2.6 | 0.00 | 0.00 | 0.00 | 31 | 1007.0 |
| 20260506225548 | 56 | 267 | 4.3 | 6.1 | 0.00 | 0.00 | 0.00 | 33 | 1007.1 |
| 20260506224547 | 56 | 247 | 6.1 | 8.7 | 0.00 | 0.00 | 0.00 | 32 | 1007.2 |
| 20260506222547 | 57 | 250 | 7.8 | 9.6 | 0.00 | 0.00 | 0.00 | 32 | 1007.2 |
| 20260506221549 | 58 | 259 | 7.8 | 8.7 | 0.00 | 0.00 | 0.00 | 32 | 1007.2 |
| 20260506215547 | 60 | 272 | 5.2 | 7.0 | 0.00 | 0.00 | 0.00 | 30 | 1007.2 |
| 20260506214548 | 59 | 256 | 4.3 | 6.1 | 0.00 | 0.00 | 0.00 | 30 | 1007.2 |
| 20260506213547 | 56 | 246 | 6.1 | 7.8 | 0.00 | 0.00 | 0.00 | 33 | 1007.2 |
| 20260506212547 | 55 | 247 | 7.8 | 8.7 | 0.00 | 0.00 | 0.00 | 33 | 1007.4 |
| 20260506211548 | 55 | 130 | 3.5 | 6.1 | 0.00 | 0.00 | 0.00 | 34 | 1007.6 |
| 20260506205548 | 56 | 294 | 8.7 | 10.4 | 0.00 | 0.00 | 0.00 | 33 | 1007.7 |
| 20260506204548 | 56 | 244 | 11.3 | 15.6 | 0.00 | 0.00 | 0.00 | 34 | 1007.8 |
| 20260506201547 | 56 | 265 | 3.5 | 6.1 | 0.00 | 0.00 | 0.00 | 35 | 1008.0 |
| 20260506200547 | 56 | 292 | 7.0 | 8.7 | 0.00 | 0.00 | 0.00 | 33 | 1008.2 |
| 20260506195548 | 56 | 254 | 6.1 | 7.8 | 0.00 | 0.00 | 0.00 | 34 | 1008.2 |
| 20260506194547 | 57 | 291 | 5.2 | 7.0 | 0.00 | 0.00 | 0.00 | 34 | 1008.2 |
| 20260506192548 | 55 | 237 | 8.7 | 11.3 | 0.00 | 0.00 | 0.00 | 36 | 1008.3 |
| 20260506191547 | 56 | 250 | 7.8 | 9.6 | 0.00 | 0.00 | 0.00 | 35 | 1008.3 |
| 20260506190548 | 55 | 253 | 4.3 | 5.2 | 0.00 | 0.00 | 0.00 | 36 | 1008.4 |
| 20260506185548 | 54 | 270 | 7.0 | 9.6 | 0.00 | 0.00 | 0.00 | 37 | 1008.4 |
| 20260506184548 | 54 | 244 | 11.3 | 13.0 | 0.00 | 0.00 | 0.00 | 36 | 1008.4 |
| 20260506183548 | 55 | 272 | 9.6 | 11.3 | 0.00 | 0.00 | 0.00 | 37 | 1008.3 |
| 20260506182547 | 54 | 248 | 5.2 | 7.0 | 0.00 | 0.00 | 0.00 | 36 | 1008.5 |
| 20260506181548 | 55 | 270 | 9.6 | 10.4 | 0.00 | 0.00 | 0.00 | 36 | 1008.6 |
| 20260506175547 | 53 | 259 | 7.8 | 10.4 | 0.00 | 0.00 | 0.00 | 37 | 1008.8 |
| 20260506174548 | 53 | 265 | 7.0 | 8.7 | 0.00 | 0.00 | 0.00 | 37 | 1008.8 |
| 20260506173547 | 53 | 257 | 7.8 | 10.4 | 0.00 | 0.00 | 0.00 | 36 | 1009.0 |
| 20260506172547 | 52 | 252 | 8.7 | 10.4 | 0.00 | 0.00 | 0.00 | 37 | 1009.0 |
| 20260506171548 | 53 | 250 | 6.1 | 8.7 | 0.00 | 0.00 | 0.00 | 38 | 1009.2 |
| 20260506170547 | 52 | 247 | 5.2 | 6.1 | 0.00 | 0.00 | 0.00 | 39 | 1009.1 |
| 20260506164547 | 51 | 276 | 3.5 | 3.5 | 0.00 | 0.00 | 0.00 | 40 | 1009.1 |
| 20260506163548 | 52 | 94 | 3.5 | 4.3 | 0.00 | 0.00 | 0.00 | 40 | 1009.2 |
| 20260506162548 | 51 | 261 | 7.8 | 10.4 | 0.00 | 0.00 | 0.00 | 40 | 1009.1 |
| 20260506161547 | 51 | 232 | 6.1 | 7.8 | 0.00 | 0.00 | 0.00 | 40 | 1009.1 |
| 20260506155548 | 51 | 209 | 4.3 | 6.1 | 0.00 | 0.00 | 0.00 | 41 | 1008.9 |
| 20260506154547 | 52 | 248 | 3.5 | 4.3 | 0.00 | 0.00 | 0.00 | 39 | 1009.0 |
| 20260506152827 | 54 | 239 | 4.3 | 6.1 | 0.00 | 0.00 | 0.00 | 43 | 1009.0 |
| 20260506151827 | 53 | 277 | 4.3 | 6.1 | 0.00 | 0.00 | 0.00 | 43 | 1009.0 |
| 20260506150828 | 52 | 271 | 2.6 | 2.6 | 0.00 | 0.00 | 0.00 | 41 | 1009.1 |
| 20260506145827 | 52 | 247 | 4.3 | 5.2 | 0.00 | 0.00 | 0.00 | 42 | 1009.1 |
| 20260506144827 | 51 | 300 | 2.6 | 3.5 | 0.00 | 0.00 | 0.00 | 43 | 1009.0 |
| 20260506143828 | 51 | 69 | 3.5 | 6.1 | 0.00 | 0.00 | 0.00 | 43 | 1008.8 |
| 20260506142827 | 51 | 268 | 5.2 | 7.0 | 0.00 | 0.00 | 0.00 | 43 | 1008.8 |
| 20260506141827 | 50 | 258 | 2.6 | 3.5 | 0.00 | 0.00 | 0.00 | 43 | 1008.8 |
| 20260506140827 | 51 | 73 | 2.6 | 3.5 | 0.00 | 0.00 | 0.00 | 43 | 1008.7 |
| 20260506135827 | 50 | 295 | 5.2 | 6.1 | 0.00 | 0.00 | 0.00 | 44 | 1008.8 |
| 20260506134826 | 49 | 263 | 3.5 | 3.5 | 0.00 | 0.00 | 0.00 | 44 | 1008.7 |
| 20260506132827 | 49 | 262 | 3.5 | 5.2 | 0.00 | 0.00 | 0.00 | 46 | 1008.2 |
| 20260506131826 | 49 | 292 | 2.6 | 3.5 | 0.00 | 0.00 | 0.00 | 46 | 1008.2 |
| 20260506130827 | 48 | 273 | 1.7 | 1.7 | 0.00 | 0.00 | 0.00 | 50 | 1008.2 |
| 20260506124827 | 46 | 288 | 1.7 | 1.7 | 0.00 | 0.00 | 0.00 | 52 | 1008.3 |
| 20260506122827 | 44 | 222 | 0.0 | 0.9 | 0.00 | 0.00 | 0.00 | 58 | 1008.2 |
| 20260506121828 | 42 | 271 | 0.9 | 1.7 | 0.00 | 0.00 | 0.00 | 61 | 1008.1 |
| 20260506120827 | 40 | 259 | 1.7 | 1.7 | 0.00 | 0.00 | 0.00 | 66 | 1008.2 |